Location: Oberkirch
(48.5323°N, 8.0787°E)
Time: 00:14:49
(UTC+00:00)

CUBEBUG 2 - Pass Details

Date: 19 March 2026
Orbit: 548 x 627 km, 97.9° (Epoch: 13 April)

Event Time Altitude Azimuth Distance (km) Brightness Sun altitude
Rises 02:25:23 0° 8° (N) 2,907 ? -29.8°
Reaches altitude 10° 02:27:37 10° 3° (N) 2,004 ? -29.5°
Enters shadow 02:29:33 25° 352° (N) 1,285 ? -29.2°
